This demonstration page uses our WeatherBlox Daily Observations layout. Learn more.

Left ArrowRight Arrow

41.12389, -100.76542

Hourly Observations for January 5, 2018

Temp ( °F °C ) Dew Point ( °F °C ) Humidity (%) Winds ( mph kmh ) Pressure ( in mb ) Visibility ( mi km ) Precip ( " mm )
12:53 am 00:53 Clear 16 -8.9 14 -10 92 92 NW 5 7 30.30 1026 8 13 0.00 0.00
1:48 am 01:48 Clear with Mist and Fog 18 -8 12 -11 79 79 Calm 30.36 1028 2 3 0.00 0.00
1:51 am 01:51 Clear with Mist and Fog 16 -8.9 12 -11.1 84 84 Calm 30.39 1029 1 1 0.00 0.00
2:08 am 02:08 Clear with Mist and Fog 18 -7.8 14 -10 84 84 Calm 30.36 1028 1 2 0.00 0.00
2:11 am 02:11 Clear with Mist and Fog 18 -7.8 14 -10 84 84 Calm 30.36 1028 3 4 0.00 0.00
2:18 am 02:18 Hazy 16 -8.9 11 -11.7 80 80 Calm 30.39 1029 3 5 0.00 0.00
2:22 am 02:22 Hazy 15 -9.4 10 -12.2 80 80 Calm 30.39 1029 2 2 0.00 0.00
2:29 am 02:29 Hazy 15 -9.4 10 -12.2 80 80 Calm 30.39 1029 1 2 0.00 0.00
2:43 am 02:43 Hazy 15 -9.4 9 -12.8 77 77 Calm 30.39 1029 2 3 0.00 0.00
2:46 am 02:46 Hazy 15 -9.4 9 -12.8 77 77 Calm 30.39 1029 4 6 0.00 0.00
2:53 am 02:53 Hazy 16 -8.9 10 -12.2 77 77 Calm 30.27 1025 5 8 0.00 0.00
3:02 am 03:02 Mostly Cloudy with Haze 15 -9.4 10 -12.2 80 80 WNW 3 6 30.39 1029 1 2 0.00 0.00
3:05 am 03:05 Mostly Cloudy with Haze 15 -9.4 9 -12.8 77 77 WNW 3 6 30.39 1029 0 0 0.00 0.00
3:19 am 03:19 Mostly Cloudy with Haze 14 -10 9 -12.8 80 80 N 3 6 30.39 1029 1 1 0.00 0.00
3:26 am 03:26 Hazy 15 -9.4 10 -12.2 80 80 Calm 30.39 1029 2 2 0.00 0.00
3:33 am 03:33 Hazy 15 -9.4 9 -12.8 77 77 Calm 30.39 1029 6 10 0.00 0.00
3:44 am 03:44 Hazy 15 -9.4 9 -12.8 77 77 Calm 30.39 1029 2 3 0.00 0.00
3:47 am 03:47 Hazy 16 -9 10 -12 79 79 SW 3 6 30.39 1029 1 1 0.00 0.00
3:53 am 03:53 Mostly Cloudy with Haze 16 -8.9 11 -11.7 80 80 Calm 30.27 1025 0 0 0.00 0.00
4:02 am 04:02 Mostly Cloudy with Haze 15 -9.4 10 -12.2 80 80 Calm 30.39 1029 1 1 0.00 0.00
4:09 am 04:09 Mostly Cloudy with Haze 15 -9.4 10 -12.2 80 80 Calm 30.39 1029 0 0 0.00 0.00
4:24 am 04:24 Mostly Cloudy with Haze 15 -9.4 9 -12.8 77 77 Calm 30.39 1029 1 1 0.00 0.00
4:42 am 04:42 Mostly Cloudy with Haze 15 -9.4 9 -12.8 77 77 Calm 30.39 1029 0 0 0.00 0.00
4:53 am 04:53 Mostly Cloudy with Haze 15 -9.4 9 -12.8 77 77 Calm 30.29 1026 0 0 0.00 0.00
5:01 am 05:01 Mostly Cloudy with Haze 15 -9.4 9 -12.8 77 77 Calm 30.42 1030 1 2 0.00 0.00
5:04 am 05:04 Mostly Cloudy with Haze 15 -9.4 8 -13.3 74 74 Calm 30.42 1030 2 3 0.00 0.00
5:11 am 05:11 Cloudy 15 -9.4 9 -12.8 77 77 Calm 30.42 1030 7 11 0.00 0.00
5:15 am 05:15 Mostly Cloudy with Haze 15 -9.4 8 -13.3 74 74 WNW 3 6 30.42 1030 1 2 0.00 0.00
5:22 am 05:22 Mostly Cloudy with Haze 14 -10 8 -13.3 77 77 Calm 30.42 1030 0 0 0.00 0.00
5:38 am 05:38 Mostly Cloudy with Haze 15 -9.4 9 -12.8 77 77 Calm 30.42 1030 1 1 0.00 0.00
5:53 am 05:53 Mostly Cloudy with Haze 14 -10 8 -13.3 77 77 Calm 30.30 1026 1 1 0.00 0.00
6:03 am 06:03 Mostly Cloudy with Haze 13 -10.6 6 -14.4 74 74 Calm 30.45 1031 0 0 0.00 0.00
6:28 am 06:28 Mostly Cloudy with Haze 13 -10.6 6 -14.4 74 74 Calm 30.45 1031 0 0 0.00 0.00
6:47 am 06:47 Cloudy with Haze 12 -11 9 -13 85 85 Calm 30.45 1031 1 2 0.00 0.00
6:49 am 06:49 Cloudy with Haze 12 -11 7 -14 79 79 Calm 30.45 1031 4 6 0.00 0.00
6:53 am 06:53 Cloudy 13 -10.6 6 -14.4 74 74 Calm 30.31 1027 7 11 0.00 0.00
7:12 am 07:12 Cloudy with Haze 13 -10.6 7 -13.9 77 77 Calm 30.45 1031 2 2 0.00 0.00
7:14 am 07:14 Mostly Cloudy with Mist and Fog 12 -11 N/A N/A E 3 6 30.45 1031 1 2 0.00 0.00
7:21 am 07:21 Mostly Cloudy with Haze 13 -10.6 7 -13.9 77 77 E 3 6 30.45 1031 0 0 0.00 0.00
7:42 am 07:42 Mostly Cloudy with Haze 13 -10.6 6 -14.4 74 74 E 6 9 30.45 1031 3 4 0.00 0.00
7:48 am 07:48 Mostly Cloudy with Haze 12 -11 7 -14 79 79 E 6 9 30.45 1031 1 2 0.00 0.00
7:53 am 07:53 Mostly Cloudy with Haze 14 -10 8 -13.3 77 77 Calm 30.34 1027 1 1 0.00 0.00
7:59 am 07:59 Mostly Cloudy with Haze 14 -10 9 -12.8 80 80 Calm 30.42 1030 1 1 0.00 0.00
8:07 am 08:07 Cloudy with Haze 14 -10 9 -12.8 80 80 E 3 6 30.42 1030 2 2 0.00 0.00
8:10 am 08:10 Cloudy with Haze 14 -10 8 -13.3 77 77 E 3 6 30.42 1030 3 5 0.00 0.00
8:18 am 08:18 Cloudy with Haze 14 -10 7 -13.9 73 73 ESE 6 9 30.42 1030 1 2 0.00 0.00
8:23 am 08:23 Mostly Cloudy with Haze 14 -10 7 -13.9 73 73 ESE 6 9 30.45 1031 0 0 0.00 0.00
8:35 am 08:35 Cloudy with Haze 14 -10 8 -13.3 77 77 E 5 7 30.45 1031 1 2 0.00 0.00
8:37 am 08:37 Cloudy with Haze 14 -10 9 -12.8 80 80 E 5 7 30.45 1031 2 3 0.00 0.00
8:39 am 08:39 Cloudy with Mist and Fog 14 -10 10 -12.2 84 84 E 5 7 30.45 1031 1 2 0.00 0.00
8:42 am 08:42 Mostly Cloudy with Fog N/A N/A N/A E 7 11 N/A 0 0 0.00 0.00
8:53 am 08:53 Mostly Cloudy with Freezing Fog 17 -8.3 14 -10 88 88 E 12 19 30.35 1028 5 8 0.00 0.00
9:30 am 09:30 Cloudy with Mist and Fog 18 -7.8 15 -9.4 88 88 ESE 12 19 30.42 1030 1 1 0.00 0.00
9:53 am 09:53 Cloudy with Mist and Fog 18 -7.8 15 -9.4 88 88 ESE 14 22 30.36 1028 1 2 0.00 0.00
10:07 am 10:07 Cloudy with Mist and Fog 19 -7.2 16 -8.9 88 88 ESE 13 20 30.42 1030 2 3 0.00 0.00
10:17 am 10:17 Cloudy with Mist and Fog 19 -7.2 16 -8.9 88 88 ESE 14 22 30.42 1030 4 6 0.00 0.00
10:50 am 10:50 Cloudy with Mist and Fog 19 -7 18 -8 93 93 SE 8 13 30.45 1031 3 4 0.00 0.00
10:53 am 10:53 Cloudy with Mist and Fog 20 -6.7 17 -8.3 89 89 SE 8 13 30.38 1029 3 4 0.00 0.00
11:04 am 11:04 Cloudy with Mist and Fog 20 -6.7 18 -7.8 92 92 ESE 7 11 30.45 1031 4 6 0.00 0.00
11:53 am 11:53 Cloudy with Mist and Fog 20 -6.7 17 -8.3 89 89 E 12 19 30.37 1029 5 8 0.00 0.00
12:08 pm 12:08 Cloudy with Mist and Fog 20 -6.7 17 -8.3 89 89 E 12 19 30.42 1030 6 10 0.00 0.00
12:53 pm 12:53 Cloudy 20 -6.7 16 -8.9 85 85 E 10 17 30.35 1028 7 11 0.00 0.00
1:22 pm 13:22 Partly Cloudy 21 -6.1 17 -8.3 85 85 E 10 17 30.39 1029 8 13 0.00 0.00
1:53 pm 13:53 Sunny 21 -6.1 17 -8.3 85 85 E 12 19 30.33 1027 7 11 0.00 0.00
2:53 pm 14:53 Sunny 22 -5.6 17 -8.3 82 82 ESE 10 17 30.34 1028 7 11 0.00 0.00
3:53 pm 15:53 Hazy 22 -5.6 16 -8.9 78 78 E 14 22 30.33 1027 5 8 0.00 0.00
4:53 pm 16:53 Hazy 19 -7.2 14 -10 81 81 E 13 20 30.36 1028 4 6 0.00 0.00
5:53 pm 17:53 Mostly Clear with Mist and Fog 17 -8.3 13 -10.6 84 84 ESE 15 24 30.38 1029 4 6 0.00 0.00
6:05 pm 18:05 Mostly Cloudy with Mist and Fog 16 -8.9 12 -11.1 84 84 ESE 15 24 30.45 1031 4 6 0.00 0.00
6:14 pm 18:14 Partly Cloudy with Mist and Fog 16 -8.9 12 -11.1 84 84 ESE 16 26 30.45 1031 4 6 0.00 0.00
6:49 pm 18:49 Mostly Cloudy with Mist and Fog 16 -9 10 -12 79 79 ESE 13 20 30.48 1032 3 5 0.00 0.00
6:53 pm 18:53 Mostly Cloudy with Mist and Fog 15 -9.4 11 -11.7 84 84 ESE 13 20 30.40 1030 3 5 0.00 0.00
7:50 pm 19:50 Cloudy with Mist and Fog 16 -9 12 -11 86 86 ESE 10 17 30.48 1032 3 5 0.00 0.00
7:53 pm 19:53 Cloudy with Mist and Fog 15 -9.4 12 -11.1 88 88 ESE 13 20 30.41 1030 3 4 0.00 0.00
8:53 pm 20:53 Cloudy with Mist and Fog 15 -9.4 12 -11.1 88 88 ESE 10 17 30.42 1030 2 3 0.00 0.00
9:29 pm 21:29 Cloudy with Mist and Fog 15 -9.4 11 -11.7 84 84 ESE 13 20 30.50 1033 2 3 0.00 0.00
9:53 pm 21:53 Cloudy with Mist and Fog 15 -9.4 11 -11.7 84 84 SE 12 19 30.43 1031 2 3 0.00 0.00
10:13 pm 22:13 Cloudy with Mist and Fog 14 -10 11 -11.7 88 88 SE 8 13 30.53 1034 3 5 0.00 0.00
10:53 pm 22:53 Cloudy with Mist and Fog 14 -10 10 -12.2 84 84 ESE 7 11 30.45 1031 3 5 0.00 0.00
11:13 pm 23:13 Mostly Cloudy with Haze 14 -10 9 -12.8 80 80 SE 8 13 30.53 1034 3 5 0.00 0.00
11:53 pm 23:53 Clear with Mist and Fog 13 -10.6 9 -12.8 84 84 ESE 7 11 30.43 1031 4 6 0.00 0.00

Powered by AerisWeather